When you browse on this site, cookies collect data to enhance your experience and personalize the content and advertising you see.
Visit our Privacy Policy to learn more. By continuing to use the site, you agree to this use of cookies and data.
  • In Lithuania
  • List of Countries
  • For 7 days
  • Water Temperature
  • Satellite Maps
  • Weather Map
  • Weather Widgets
  • user-avatar
    Login

    Hourly Weather Ezhiki

    Today, 16 July, Tuesday

    Time Temperature Precipitation Wind Pressure Humidity
    00:00 +14°C° 0 mm 1 mps 746 mmHg 87%
    01:00 +14°C° 0 mm 1 mps 746 mmHg 89%
    02:00 +13°C° 0 mm 1 mps 746 mmHg 90%
    03:00 +13°C° 0 mm 1 mps 746 mmHg 91%
    04:00 +13°C° 0 mm 1 mps 745 mmHg 92%
    05:00 +13°C° 0 mm 2 mps 745 mmHg 93%
    06:00 +15°C° 0 mm 2 mps 745 mmHg 87%
    07:00 +16°C° 0 mm 2 mps 745 mmHg 81%
    08:00 +18°C° 0 mm 2 mps 745 mmHg 75%
    09:00 +19°C° 0.3 mm 3 mps 745 mmHg 69%
    10:00 +21°C° 0.3 mm 3 mps 745 mmHg 63%
    11:00 +22°C° 0.3 mm 4 mps 745 mmHg 57%
    12:00 +22°C° 0.2 mm 5 mps 744 mmHg 58%
    13:00 +22°C° 0.2 mm 6 mps 744 mmHg 59%
    14:00 +22°C° 0.2 mm 6 mps 744 mmHg 60%
    15:00 +21°C° 0.4 mm 6 mps 744 mmHg 61%
    16:00 +20°C° 0.4 mm 6 mps 743 mmHg 63%
    17:00 +19°C° 0.4 mm 6 mps 743 mmHg 64%
    18:00 +17°C° 0 mm 5 mps 743 mmHg 67%
    19:00 +17°C° 0 mm 4 mps 743 mmHg 70%
    20:00 +16°C° 0 mm 3 mps 743 mmHg 73%
    21:00 +14°C° 0 mm 3 mps 743 mmHg 79%
    22:00 +13°C° 0 mm 3 mps 743 mmHg 85%
    23:00 +12°C° 0 mm 3 mps 743 mmHg 91%

    Tomorrow, 17 July, Wednesday

    Time Temperature Precipitation Wind Pressure Humidity
    00:00 +12°C° 0.1 mm 3 mps 744 mmHg 93%
    01:00 +12°C° 0.1 mm 2 mps 744 mmHg 95%
    02:00 +12°C° 0.1 mm 2 mps 744 mmHg 96%
    03:00 +12°C° 0 mm 2 mps 743 mmHg 96%
    04:00 +10°C° 0 mm 2 mps 743 mmHg 95%
    05:00 +10°C° 0 mm 2 mps 743 mmHg 95%
    06:00 +11°C° 0.5 mm 3 mps 743 mmHg 94%
    07:00 +12°C° 0.5 mm 3 mps 743 mmHg 92%
    08:00 +12°C° 0.5 mm 3 mps 743 mmHg 91%
    09:00 +14°C° 0.8 mm 4 mps 743 mmHg 85%
    10:00 +15°C° 0.8 mm 4 mps 743 mmHg 79%
    11:00 +18°C° 0.8 mm 4 mps 743 mmHg 73%
    12:00 +17°C° 0.8 mm 5 mps 743 mmHg 72%
    13:00 +19°C° 0.8 mm 5 mps 742 mmHg 70%
    14:00 +19°C° 0.8 mm 5 mps 742 mmHg 69%
    15:00 +19°C° 0.5 mm 5 mps 742 mmHg 69%
    16:00 +19°C° 0.5 mm 5 mps 742 mmHg 70%
    17:00 +19°C° 0.5 mm 5 mps 742 mmHg 70%
    18:00 +17°C° 0.2 mm 5 mps 742 mmHg 75%
    19:00 +17°C° 0.2 mm 4 mps 743 mmHg 80%
    20:00 +16°C° 0.2 mm 3 mps 743 mmHg 84%
    21:00 +14°C° 0 mm 3 mps 743 mmHg 87%
    22:00 +13°C° 0 mm 3 mps 743 mmHg 90%
    23:00 +12°C° 0 mm 3 mps 743 mmHg 92%

    Day after tomorrow, 18 July, Thursday

    Time Temperature Precipitation Wind Pressure Humidity
    00:00 +11°C° 0 mm 3 mps 743 mmHg 94%
    01:00 +11°C° 0 mm 3 mps 743 mmHg 95%
    02:00 +11°C° 0 mm 3 mps 743 mmHg 96%
    03:00 +11°C° 0 mm 3 mps 743 mmHg 96%
    04:00 +11°C° 0 mm 3 mps 743 mmHg 95%
    05:00 +12°C° 0 mm 4 mps 743 mmHg 95%
    06:00 +13°C° 0 mm 4 mps 743 mmHg 92%
    07:00 +13°C° 0 mm 4 mps 743 mmHg 90%
    08:00 +14°C° 0 mm 4 mps 743 mmHg 87%
    09:00 +15°C° 0 mm 4 mps 744 mmHg 82%
    10:00 +17°C° 0 mm 4 mps 744 mmHg 78%
    11:00 +19°C° 0 mm 5 mps 744 mmHg 73%
    12:00 +20°C° 0.2 mm 5 mps 744 mmHg 70%
    13:00 +21°C° 0.2 mm 5 mps 744 mmHg 67%
    14:00 +22°C° 0.2 mm 6 mps 744 mmHg 63%
    15:00 +22°C° 0.5 mm 5 mps 744 mmHg 64%
    16:00 +22°C° 0.5 mm 5 mps 744 mmHg 64%
    17:00 +22°C° 0.5 mm 5 mps 744 mmHg 64%
    18:00 +21°C° 0.1 mm 4 mps 744 mmHg 69%
    19:00 +20°C° 0.1 mm 4 mps 745 mmHg 75%
    20:00 +19°C° 0.1 mm 3 mps 745 mmHg 80%
    21:00 +18°C° 0 mm 3 mps 745 mmHg 83%
    22:00 +17°C° 0 mm 3 mps 745 mmHg 87%
    23:00 +16°C° 0 mm 3 mps 746 mmHg 91%

    19 July, Friday

    Time Temperature Precipitation Wind Pressure Humidity
    00:00 +14°C° 0 mm 3 mps 746 mmHg 92%
    01:00 +15°C° 0 mm 2 mps 746 mmHg 93%
    02:00 +14°C° 0 mm 2 mps 746 mmHg 94%
    03:00 +14°C° 0 mm 2 mps 746 mmHg 95%
    04:00 +14°C° 0 mm 2 mps 746 mmHg 95%
    05:00 +13°C° 0 mm 2 mps 746 mmHg 95%
    06:00 +15°C° 0 mm 2 mps 746 mmHg 89%
    07:00 +17°C° 0 mm 2 mps 747 mmHg 83%
    08:00 +18°C° 0 mm 2 mps 747 mmHg 76%
    09:00 +20°C° 0 mm 2 mps 747 mmHg 68%
    10:00 +21°C° 0 mm 2 mps 747 mmHg 59%
    11:00 +24°C° 0 mm 2 mps 747 mmHg 51%
    12:00 +24°C° 0 mm 2 mps 747 mmHg 47%
    13:00 +25°C° 0 mm 2 mps 747 mmHg 44%
    14:00 +26°C° 0 mm 2 mps 747 mmHg 40%
    15:00 +26°C° 0 mm 2 mps 747 mmHg 41%
    16:00 +26°C° 0 mm 2 mps 747 mmHg 41%
    17:00 +26°C° 0 mm 2 mps 747 mmHg 42%
    18:00 +24°C° 0 mm 2 mps 747 mmHg 49%
    19:00 +23°C° 0 mm 2 mps 747 mmHg 57%
    20:00 +21°C° 0 mm 1 mps 747 mmHg 64%
    21:00 +20°C° 0 mm 1 mps 748 mmHg 66%
    22:00 +19°C° 0 mm 1 mps 748 mmHg 68%
    23:00 +18°C° 0 mm 1 mps 748 mmHg 70%

    20 July, Saturday

    Time Temperature Precipitation Wind Pressure Humidity
    00:00 +18°C° 0 mm 1 mps 748 mmHg 72%
    01:00 +16°C° 0 mm 1 mps 748 mmHg 74%
    02:00 +15°C° 0 mm 1 mps 748 mmHg 76%
    03:00 +15°C° 0 mm 1 mps 748 mmHg 78%
    04:00 +15°C° 0 mm 1 mps 748 mmHg 79%
    05:00 +15°C° 0 mm 1 mps 748 mmHg 81%
    06:00 +18°C° 0 mm 1 mps 749 mmHg 76%
    07:00 +20°C° 0 mm 1 mps 749 mmHg 70%
    08:00 +22°C° 0 mm 1 mps 749 mmHg 65%
    09:00 +23°C° 0 mm 1 mps 749 mmHg 60%
    10:00 +24°C° 0 mm 1 mps 750 mmHg 55%
    11:00 +26°C° 0 mm 1 mps 750 mmHg 50%
    12:00 +26°C° 0 mm 2 mps 750 mmHg 48%
    13:00 +27°C° 0 mm 2 mps 750 mmHg 47%
    14:00 +27°C° 0 mm 2 mps 750 mmHg 46%
    15:00 +27°C° 0.1 mm 2 mps 750 mmHg 47%
    16:00 +27°C° 0.1 mm 2 mps 750 mmHg 49%
    17:00 +26°C° 0.1 mm 2 mps 750 mmHg 50%
    18:00 +25°C° 0 mm 2 mps 750 mmHg 57%
    19:00 +23°C° 0 mm 2 mps 750 mmHg 64%
    20:00 +22°C° 0 mm 1 mps 750 mmHg 71%
    21:00 +20°C° 0 mm 2 mps 751 mmHg 74%
    22:00 +19°C° 0 mm 2 mps 751 mmHg 76%
    23:00 +18°C° 0 mm 2 mps 751 mmHg 78%

    21 July, Sunday

    Time Temperature Precipitation Wind Pressure Humidity
    00:00 +17°C° 0 mm 2 mps 751 mmHg 79%
    01:00 +17°C° 0 mm 2 mps 751 mmHg 80%
    02:00 +16°C° 0 mm 2 mps 751 mmHg 81%
    03:00 +16°C° 0 mm 2 mps 752 mmHg 82%
    04:00 +16°C° 0 mm 2 mps 752 mmHg 83%
    05:00 +16°C° 0 mm 1 mps 752 mmHg 84%
    06:00 +17°C° 0 mm 2 mps 752 mmHg 78%
    07:00 +19°C° 0 mm 2 mps 752 mmHg 73%
    08:00 +21°C° 0 mm 2 mps 753 mmHg 67%
    09:00 +24°C° 0 mm 2 mps 753 mmHg 62%
    10:00 +25°C° 0 mm 2 mps 753 mmHg 56%
    11:00 +26°C° 0 mm 2 mps 753 mmHg 50%
    12:00 +27°C° 0 mm 2 mps 753 mmHg 47%
    13:00 +28°C° 0 mm 2 mps 753 mmHg 44%
    14:00 +28°C° 0 mm 2 mps 753 mmHg 41%
    15:00 +28°C° 0 mm 2 mps 753 mmHg 42%
    16:00 +28°C° 0 mm 2 mps 753 mmHg 43%
    17:00 +28°C° 0 mm 2 mps 753 mmHg 44%
    18:00 +26°C° 0 mm 2 mps 753 mmHg 52%
    19:00 +25°C° 0 mm 1 mps 753 mmHg 59%
    20:00 +23°C° 0 mm 1 mps 753 mmHg 66%
    21:00 +22°C° 0 mm 1 mps 753 mmHg 69%
    22:00 +21°C° 0 mm 1 mps 753 mmHg 72%
    23:00 +20°C° 0 mm 1 mps 754 mmHg 75%
    Show more